Showing default

SKYNET 4B, 19687

Orbit data source: Space-Track

SKYNET 4B, 19687 is a payload satellite owned by UK MoD (UK) in GEO that was launched on Sun, 11 Dec 1988 UTC via an ARIANE 44LP launch vehicle from the French Guiana (FRGUI). Payload-class satellites include a variety of spacecraft equipped with specific instruments for various scientific and technological missions. These include communications satellites like Starlink; space stations such as the ISS; scientific satellites like the Hubble; Earth observation satellites from companies like Planet Labs, Umbra, and HawkEye 360; GPS; miniature CubeSats for education and research; and military/defense satellites.

Loading next visibility...
Identifier
19687, 1988-109A
Orbit
GEO
Country
Flag of UKUK
Related business
Manufacturer
BAe
Mission
Non-operational Defense Communications
Bus & Motor
ECS, TE-M-700-19
Mass
1,433 kg wet, 655 kg dry
Launch date (UTC)
1988-12-11 (37 years ago)
Launch vehicle
ARIANE 44LP
Launch site
French Guiana (FRGUI)
Object type
Payload
Rocket body
Debris
Shape & HBR
Hex Poly + 2 Pan, 8.0 m
Radar Cross Section
11.617 m², Large (>1 m²)

Expand to show TLE details & history
Last TLE update: 15 hours ago

TLE from 15 hours ago
0 SKYNET 4B
1 19687U 88109A   25310.45077564 -.00000266  00000-0  00000+0 0  9990
2 19687  13.3138 338.4884 0008305 272.1829 259.4957  0.99671232115947
Epoch: 2025-11-06T10:49Z
TLE epoch observation values (Epoch: 2025-11-06T10:49:07.015Z)
Latitude
1.92242°
Longitude
-57.90829°
Altitude
35,961.431 km
Speed
3.068 km/s
True Right ascension
10h 01m 07s
True Declination
1° 55' 14"
Sunlit
Object was in daylight at epoch
Visualization orbit readout
Latitude
Unknown
Longitude
Unknown
Altitude
Unknown
Speed
Unknown
Apparent Right ascension
Unknown
Apparent Declination
Unknown
Sunlit
N/A
Visualization observer readout
Local Sidereal Time
21:55:38
Azimuth
Unknown
Elevation
Unknown
Doppler factor
Unknown
Orbital elements
Apogee altitude
35,991.939 km
Perigee altitude
35,921.621 km
Semi-major axis
42,334.917 km
Eccentricity
0.00083
Inclination
13.3138°
RAAN
338.4884°
Arg. of periapsis
272.1829°
True anomaly
259.40214°
Mean anomaly
259.4957°
Eccentric anomaly
259.44892°
Mean motion
0.24917 °/min
Orbital period
1,444.8 mins
BSTAR
0
Loading maneuver chart data...
Computing Atmospheric mass density...
Loading historical data...
Loading historical data...
Loading historical data...
Loading historical data...
Loading historical data...
Loading historical data...
Loading historical data...

Documentation

Showing up to 5 results
|